Weather Roundup
Issued by NWS Corpus Christi, TX

Home | Current Version | Previous Version | Text Only | Print | Product List | Glossary On
Versions: 1 2 3 4 5 6 7 8 9 10 11 12 13 14 15 16 17 18 19 20 21 22 23 24 25 26 27 28 29 30 31 32 33 34 35 36 37 38 39 40 41 42 43 44 45 46 47 48 49 50
000
ASUS44 KCRP 250110
HRRCRP

SOUTH TEXAS REGIONAL WEATHER ROUNDUP
NATIONAL WEATHER SERVICE CORPUS CHRISTI TX
700 PM CST SAT FEB 24 2018


TXZ229>244-250200-
...CORPUS CHRISTI AREA OBSERVATIONS...

CITY           SKY/WX    TMP DP  RH WIND       PRES   REMARKS
CORPUS CHRISTI CLOUDY    73  69  87 S18       29.83R
NAS CORPUS CHR FAIR      72  69  90 S21G29    29.83S
ROCKPORT       FAIR      71  68  90 S12G20    29.84S
KINGSVILLE ARP FAIR      81  72  73 E6        29.81R
KINGSVILLE NAS CLOUDY    77  69  76 SE14      29.81R
ALICE          CLOUDY    78  68  71 SE7       29.80S
$$

...VICTORIA AREA OBSERVATIONS...

CITY           SKY/WX    TMP DP  RH WIND       PRES   REMARKS
PORT LAVACA    FAIR      73  68  87 S8        29.87S
VICTORIA       FAIR      72  68  87 SE13      29.85F
BEEVILLE       FAIR      73  69  85 SE8       29.83R
PLEASANTON     LGT RAIN  70  67  91 NE7       29.86R
SAN ANTONIO    CLOUDY    70  65  84 CALM      29.88R
$$

...LAREDO AREA OBSERVATIONS...

CITY           SKY/WX    TMP DP  RH WIND       PRES   REMARKS
LAREDO         CLOUDY    77  66  68 S3        29.83R
COTULLA        CLOUDY    71  68  90 N7        29.83R
DEL RIO        CLEAR     72  62  71 SE9       29.89R
MCALLEN        FAIR      81  68  64 SE14G26   29.80R
HEBBRONVILLE   MOCLDY    79  64  61 CALM      29.82S
$$

...OTHER TEXAS OBSERVATIONS...

CITY           SKY/WX    TMP DP  RH WIND       PRES   REMARKS
BROWNSVILLE    FAIR      76  71  85 S18       29.84R
HOUSTON        CLOUDY    76  68  76 S12G18    29.88R
COL. STATION   CLOUDY    70  68  93 CALM      29.87S
AUSTIN         CLOUDY    67  66  97 CALM      29.87R
WACO           CLOUDY    58  53  84 CALM      29.92R
FORT WORTH     CLOUDY    57  45  64 N5        29.90R
WICHITA FALLS  CLEAR     56  28  34 NW10      29.91R
LUBBOCK        PTCLDY    49   2  14 W14       29.95R
EL PASO        PTCLDY    53   5  14 W5        30.04R
$$

...MARINE OBSERVATIONS...

STATION/POSITION TIME  SKY/WX   TEMP    WIND        PRES    VSBY  WAVE   SWELL
                                AIR SEA DIR/SP/G                  HT/PER HT/PER
                 (UTC)          (F)     (DEG/KT/KT) (MB)    (MI)  (FT/S) (FT/S)
PORT ARANSAS     NOT AVBL
BUOY 90 E PORT A 0050            74 74  140/ 14/ 16 1012.3R         6/ 7
BUOY 200 E PT IS 0050            75 74  160/ 14/ 17 1013.8R         6/ 8   3/ 8
BUOY 15 E GALVES 2350            68 65  160/  8/  8 1013.0          4/ 7   3/ 7
$$




USA.gov is the U.S. government's official web portal to all federal, state and local government web resources and services.